owner,sensor,date,latitude,longitude,vertical_datum,wind_speed,wind_to_direction,wind_speed_of_gust,qcFlag 
DISL,ioos:station:DISL:PPTA:1,2013-07-01T00:00:00Z,30.2791,-87.5561,0.0,2.38,155.0,-9999.0,'1111122,1111122,1111122' 
DISL,ioos:station:DISL:PPTA:1,2013-07-01T00:30:00Z,30.2791,-87.5561,0.0,1.54,167.7,-9999.0,'1111122,1111122,1111122' 
DISL,ioos:station:DISL:PPTA:1,2013-07-01T01:00:00Z,30.2791,-87.5561,0.0,0.7,187.0,-9999.0,'1111122,1111122,1111122' 
DISL,ioos:station:DISL:PPTA:1,2013-07-01T01:30:00Z,30.2791,-87.5561,0.0,0.91,182.8,-9999.0,'1111122,1111122,1111122' 
DISL,ioos:station:DISL:PPTA:1,2013-07-01T02:00:00Z,30.2791,-87.5561,0.0,0.9,175.8,-9999.0,'1111122,1111122,1111122' 
DISL,ioos:station:DISL:PPTA:1,2013-07-01T02:30:00Z,30.2791,-87.5561,0.0,1.04,185.1,-9999.0,'1111122,1111122,1111122' 
DISL,ioos:station:DISL:PPTA:1,2013-07-01T03:00:00Z,30.2791,-87.5561,0.0,0.59,196.5,-9999.0,'1111122,1111122,1111122' 
DISL,ioos:station:DISL:PPTA:1,2013-07-01T03:30:00Z,30.2791,-87.5561,0.0,1.09,172.9,-9999.0,'1111122,1111122,1111122' 
DISL,ioos:station:DISL:PPTA:1,2013-07-01T04:00:00Z,30.2791,-87.5561,0.0,1.37,171.1,-9999.0,'1111122,1111122,1111122' 
DISL,ioos:station:DISL:PPTA:1,2013-07-01T04:30:00Z,30.2791,-87.5561,0.0,0.76,182.7,-9999.0,'1111122,1111122,1111122' 
DISL,ioos:station:DISL:PPTA:1,2013-07-01T05:00:00Z,30.2791,-87.5561,0.0,1.73,174.1,-9999.0,'1111122,1111122,1111122' 
DISL,ioos:station:DISL:PPTA:1,2013-07-01T05:30:00Z,30.2791,-87.5561,0.0,1.75,174.7,-9999.0,'1111122,1111122,1111122' 
DISL,ioos:station:DISL:PPTA:1,2013-07-01T06:00:00Z,30.2791,-87.5561,0.0,1.13,217.3,-9999.0,'1111122,1111122,1111122' 
DISL,ioos:station:DISL:PPTA:1,2013-07-01T06:30:00Z,30.2791,-87.5561,0.0,1.16,220.8,-9999.0,'1111122,1111122,1111122' 
DISL,ioos:station:DISL:PPTA:1,2013-07-01T07:00:00Z,30.2791,-87.5561,0.0,0.89,220.1,-9999.0,'1111122,1111122,1111122' 
DISL,ioos:station:DISL:PPTA:1,2013-07-01T07:30:00Z,30.2791,-87.5561,0.0,1.07,222.4,-9999.0,'1111122,1111122,1111122' 
DISL,ioos:station:DISL:PPTA:1,2013-07-01T08:00:00Z,30.2791,-87.5561,0.0,1.31,288.6,-9999.0,'1111122,1111122,1111122' 
DISL,ioos:station:DISL:PPTA:1,2013-07-01T08:30:00Z,30.2791,-87.5561,0.0,2.01,287.1,-9999.0,'1111122,1111122,1111122' 
DISL,ioos:station:DISL:PPTA:1,2013-07-01T09:00:00Z,30.2791,-87.5561,0.0,2.38,277.4,-9999.0,'1111122,1111122,1111122' 
DISL,ioos:station:DISL:PPTA:1,2013-07-01T09:30:00Z,30.2791,-87.5561,0.0,1.08,305.2,-9999.0,'1111122,1111122,1111122' 
DISL,ioos:station:DISL:PPTA:1,2013-07-01T10:00:00Z,30.2791,-87.5561,0.0,0.92,302.0,-9999.0,'1111122,1111122,1111122' 
DISL,ioos:station:DISL:PPTA:1,2013-07-01T10:30:00Z,30.2791,-87.5561,0.0,3.16,245.9,-9999.0,'1111122,1111122,1111122' 
DISL,ioos:station:DISL:PPTA:1,2013-07-01T11:00:00Z,30.2791,-87.5561,0.0,1.66,283.9,-9999.0,'1111122,1111122,1111122' 
DISL,ioos:station:DISL:PPTA:1,2013-07-01T11:30:00Z,30.2791,-87.5561,0.0,1.27,327.6,-9999.0,'1111122,1111122,1111122' 
DISL,ioos:station:DISL:PPTA:1,2013-07-01T12:00:00Z,30.2791,-87.5561,0.0,2.75,294.1,-9999.0,'1111122,1111122,1111122' 
DISL,ioos:station:DISL:PPTA:1,2013-07-01T12:30:00Z,30.2791,-87.5561,0.0,4.49,296.0,-9999.0,'1111122,1111122,1111122' 
DISL,ioos:station:DISL:PPTA:1,2013-07-01T13:00:00Z,30.2791,-87.5561,0.0,3.18,314.4,-9999.0,'1111122,1111122,1111122' 
DISL,ioos:station:DISL:PPTA:1,2013-07-01T13:30:00Z,30.2791,-87.5561,0.0,3.57,321.4,-9999.0,'1111122,1111122,1111122' 
DISL,ioos:station:DISL:PPTA:1,2013-07-01T14:00:00Z,30.2791,-87.5561,0.0,2.69,322.5,-9999.0,'1111122,1111122,1111122' 
DISL,ioos:station:DISL:PPTA:1,2013-07-01T14:30:00Z,30.2791,-87.5561,0.0,2.75,316.6,-9999.0,'1111122,1111122,1111122' 
DISL,ioos:station:DISL:PPTA:1,2013-07-01T15:00:00Z,30.2791,-87.5561,0.0,3.2,291.4,-9999.0,'1111122,1111122,1111122' 
DISL,ioos:station:DISL:PPTA:1,2013-07-01T15:30:00Z,30.2791,-87.5561,0.0,2.82,290.1,-9999.0,'1111122,1111122,1111122' 
DISL,ioos:station:DISL:PPTA:1,2013-07-01T16:00:00Z,30.2791,-87.5561,0.0,2.01,297.8,-9999.0,'1111122,1111122,1111122' 
DISL,ioos:station:DISL:PPTA:1,2013-07-01T16:30:00Z,30.2791,-87.5561,0.0,1.52,252.4,-9999.0,'1111122,1111122,1111122' 
DISL,ioos:station:DISL:PPTA:1,2013-07-01T17:00:00Z,30.2791,-87.5561,0.0,2.9,175.3,-9999.0,'1111122,1111122,1111122' 
DISL,ioos:station:DISL:PPTA:1,2013-07-01T17:30:00Z,30.2791,-87.5561,0.0,2.43,219.2,-9999.0,'1111122,1111122,1111122' 
DISL,ioos:station:DISL:PPTA:1,2013-07-01T18:00:00Z,30.2791,-87.5561,0.0,3.27,226.8,-9999.0,'1111122,1111122,1111122' 
DISL,ioos:station:DISL:PPTA:1,2013-07-01T18:30:00Z,30.2791,-87.5561,0.0,4.11,265.3,-9999.0,'1111122,1111122,1111122' 
DISL,ioos:station:DISL:PPTA:1,2013-07-01T19:00:00Z,30.2791,-87.5561,0.0,3.42,242.4,-9999.0,'1111122,1111122,1111122' 
DISL,ioos:station:DISL:PPTA:1,2013-07-01T19:30:00Z,30.2791,-87.5561,0.0,2.11,211.7,-9999.0,'1111122,1111122,1111122' 
DISL,ioos:station:DISL:PPTA:1,2013-07-01T20:00:00Z,30.2791,-87.5561,0.0,4.02,224.3,-9999.0,'1111122,1111122,1111122' 
DISL,ioos:station:DISL:PPTA:1,2013-07-01T20:30:00Z,30.2791,-87.5561,0.0,4.08,221.8,-9999.0,'1111122,1111122,1111122' 
DISL,ioos:station:DISL:PPTA:1,2013-07-01T21:00:00Z,30.2791,-87.5561,0.0,4.36,226.2,-9999.0,'1111122,1111122,1111122' 
DISL,ioos:station:DISL:PPTA:1,2013-07-01T21:30:00Z,30.2791,-87.5561,0.0,4.52,223.7,-9999.0,'1111122,1111122,1111122' 
DISL,ioos:station:DISL:PPTA:1,2013-07-01T22:00:00Z,30.2791,-87.5561,0.0,4.26,223.1,-9999.0,'1111122,1111122,1111122' 
DISL,ioos:station:DISL:PPTA:1,2013-07-01T22:30:00Z,30.2791,-87.5561,0.0,3.95,222.0,-9999.0,'1111122,1111122,1111122' 
DISL,ioos:station:DISL:PPTA:1,2013-07-01T23:00:00Z,30.2791,-87.5561,0.0,3.0,220.0,-9999.0,'1111122,1111122,1111122' 
DISL,ioos:station:DISL:PPTA:1,2013-07-01T23:30:00Z,30.2791,-87.5561,0.0,3.39,222.3,-9999.0,'1111122,1111122,1111122' 
DISL,ioos:station:DISL:PPTA:1,2013-07-02T00:00:00Z,30.2791,-87.5561,0.0,3.61,230.2,-9999.0,'1111122,1111122,1111122' 
DISL,ioos:station:DISL:PPTA:1,2013-07-02T00:30:00Z,30.2791,-87.5561,0.0,3.17,227.5,-9999.0,'1111122,1111122,1111122' 
DISL,ioos:station:DISL:PPTA:1,2013-07-02T01:00:00Z,30.2791,-87.5561,0.0,2.71,236.3,-9999.0,'1111122,1111122,1111122' 
DISL,ioos:station:DISL:PPTA:1,2013-07-02T01:30:00Z,30.2791,-87.5561,0.0,2.19,236.4,-9999.0,'1111122,1111122,1111122' 
DISL,ioos:station:DISL:PPTA:1,2013-07-02T02:00:00Z,30.2791,-87.5561,0.0,2.36,235.5,-9999.0,'1111122,1111122,1111122' 
DISL,ioos:station:DISL:PPTA:1,2013-07-02T02:30:00Z,30.2791,-87.5561,0.0,2.97,233.1,-9999.0,'1111122,1111122,1111122' 
DISL,ioos:station:DISL:PPTA:1,2013-07-02T03:00:00Z,30.2791,-87.5561,0.0,2.69,236.9,-9999.0,'1111122,1111122,1111122' 
DISL,ioos:station:DISL:PPTA:1,2013-07-02T03:30:00Z,30.2791,-87.5561,0.0,2.74,235.0,-9999.0,'1111122,1111122,1111122' 
DISL,ioos:station:DISL:PPTA:1,2013-07-02T04:00:00Z,30.2791,-87.5561,0.0,2.04,233.1,-9999.0,'1111122,1111122,1111122' 
DISL,ioos:station:DISL:PPTA:1,2013-07-02T04:30:00Z,30.2791,-87.5561,0.0,1.62,231.0,-9999.0,'1111122,1111122,1111122' 
DISL,ioos:station:DISL:PPTA:1,2013-07-02T05:00:00Z,30.2791,-87.5561,0.0,0.77,218.3,-9999.0,'1111122,1111122,1111122' 
DISL,ioos:station:DISL:PPTA:1,2013-07-02T05:30:00Z,30.2791,-87.5561,0.0,1.58,239.6,-9999.0,'1111122,1111122,1111122' 
DISL,ioos:station:DISL:PPTA:1,2013-07-02T06:00:00Z,30.2791,-87.5561,0.0,1.22,264.6,-9999.0,'1111122,1111122,1111122' 
DISL,ioos:station:DISL:PPTA:1,2013-07-02T06:30:00Z,30.2791,-87.5561,0.0,0.88,311.4,-9999.0,'1111122,1111122,1111122' 
DISL,ioos:station:DISL:PPTA:1,2013-07-02T07:00:00Z,30.2791,-87.5561,0.0,1.91,49.2,-9999.0,'1111122,1111122,1111122' 
DISL,ioos:station:DISL:PPTA:1,2013-07-02T07:30:00Z,30.2791,-87.5561,0.0,1.71,27.8,-9999.0,'1111122,1111122,1111122' 
DISL,ioos:station:DISL:PPTA:1,2013-07-02T08:00:00Z,30.2791,-87.5561,0.0,1.66,13.16,-9999.0,'1111122,1111122,1111122' 
DISL,ioos:station:DISL:PPTA:1,2013-07-02T08:30:00Z,30.2791,-87.5561,0.0,1.77,35.11,-9999.0,'1111122,1111122,1111122' 
DISL,ioos:station:DISL:PPTA:1,2013-07-02T09:00:00Z,30.2791,-87.5561,0.0,2.36,12.14,-9999.0,'1111122,1111122,1111122' 
DISL,ioos:station:DISL:PPTA:1,2013-07-02T09:30:00Z,30.2791,-87.5561,0.0,1.72,8.71,-9999.0,'1111122,1111122,1111122' 
DISL,ioos:station:DISL:PPTA:1,2013-07-02T10:00:00Z,30.2791,-87.5561,0.0,1.93,305.5,-9999.0,'1111122,1111122,1111122' 
DISL,ioos:station:DISL:PPTA:1,2013-07-02T10:30:00Z,30.2791,-87.5561,0.0,1.84,337.2,-9999.0,'1111122,1111122,1111122' 
DISL,ioos:station:DISL:PPTA:1,2013-07-02T11:00:00Z,30.2791,-87.5561,0.0,1.83,288.1,-9999.0,'1111122,1111122,1111122' 
DISL,ioos:station:DISL:PPTA:1,2013-07-02T11:30:00Z,30.2791,-87.5561,0.0,1.56,340.7,-9999.0,'1111122,1111122,1111122' 
DISL,ioos:station:DISL:PPTA:1,2013-07-02T12:00:00Z,30.2791,-87.5561,0.0,2.19,11.66,-9999.0,'1111122,1111122,1111122' 
DISL,ioos:station:DISL:PPTA:1,2013-07-02T12:30:00Z,30.2791,-87.5561,0.0,1.64,356.5,-9999.0,'1111122,1111122,1111122' 
DISL,ioos:station:DISL:PPTA:1,2013-07-02T13:00:00Z,30.2791,-87.5561,0.0,1.3,14.08,-9999.0,'1111122,1111122,1111122' 
DISL,ioos:station:DISL:PPTA:1,2013-07-02T13:30:00Z,30.2791,-87.5561,0.0,0.75,18.81,-9999.0,'1111122,1111122,1111122' 
DISL,ioos:station:DISL:PPTA:1,2013-07-02T14:00:00Z,30.2791,-87.5561,0.0,0.8,20.64,-9999.0,'1111122,1111122,1111122' 
DISL,ioos:station:DISL:PPTA:1,2013-07-02T14:30:00Z,30.2791,-87.5561,0.0,0.68,55.71,-9999.0,'1111122,1111122,1111122' 
DISL,ioos:station:DISL:PPTA:1,2013-07-02T15:00:00Z,30.2791,-87.5561,0.0,0.68,100.8,-9999.0,'1111122,1111122,1111122' 
DISL,ioos:station:DISL:PPTA:1,2013-07-02T15:30:00Z,30.2791,-87.5561,0.0,0.92,145.5,-9999.0,'1111122,1111122,1111122' 
DISL,ioos:station:DISL:PPTA:1,2013-07-02T16:00:00Z,30.2791,-87.5561,0.0,1.98,147.0,-9999.0,'1111122,1111122,1111122' 
DISL,ioos:station:DISL:PPTA:1,2013-07-02T16:30:00Z,30.2791,-87.5561,0.0,1.63,152.3,-9999.0,'1111122,1111122,1111122' 
DISL,ioos:station:DISL:PPTA:1,2013-07-02T17:00:00Z,30.2791,-87.5561,0.0,2.19,167.3,-9999.0,'1111122,1111122,1111122' 
DISL,ioos:station:DISL:PPTA:1,2013-07-02T17:30:00Z,30.2791,-87.5561,0.0,1.47,168.9,-9999.0,'1111122,1111122,1111122' 
DISL,ioos:station:DISL:PPTA:1,2013-07-02T18:00:00Z,30.2791,-87.5561,0.0,2.52,165.9,-9999.0,'1111122,1111122,1111122' 
DISL,ioos:station:DISL:PPTA:1,2013-07-02T18:30:00Z,30.2791,-87.5561,0.0,2.96,174.3,-9999.0,'1111122,1111122,1111122' 
DISL,ioos:station:DISL:PPTA:1,2013-07-02T19:00:00Z,30.2791,-87.5561,0.0,2.69,168.5,-9999.0,'1111122,1111122,1111122' 
DISL,ioos:station:DISL:PPTA:1,2013-07-02T19:30:00Z,30.2791,-87.5561,0.0,3.32,171.1,-9999.0,'1111122,1111122,1111122' 
DISL,ioos:station:DISL:PPTA:1,2013-07-02T20:00:00Z,30.2791,-87.5561,0.0,3.73,167.8,-9999.0,'1111122,1111122,1111122' 
DISL,ioos:station:DISL:PPTA:1,2013-07-02T20:30:00Z,30.2791,-87.5561,0.0,3.5,167.1,-9999.0,'1111122,1111122,1111122' 
DISL,ioos:station:DISL:PPTA:1,2013-07-02T21:00:00Z,30.2791,-87.5561,0.0,3.11,163.1,-9999.0,'1111122,1111122,1111122' 
DISL,ioos:station:DISL:PPTA:1,2013-07-02T21:30:00Z,30.2791,-87.5561,0.0,2.64,165.9,-9999.0,'1111122,1111122,1111122' 
DISL,ioos:station:DISL:PPTA:1,2013-07-02T22:00:00Z,30.2791,-87.5561,0.0,2.58,165.2,-9999.0,'1111122,1111122,1111122' 
DISL,ioos:station:DISL:PPTA:1,2013-07-02T22:30:00Z,30.2791,-87.5561,0.0,2.4,160.2,-9999.0,'1111122,1111122,1111122' 
DISL,ioos:station:DISL:PPTA:1,2013-07-02T23:00:00Z,30.2791,-87.5561,0.0,2.47,161.9,-9999.0,'1111122,1111122,1111122' 
DISL,ioos:station:DISL:PPTA:1,2013-07-02T23:30:00Z,30.2791,-87.5561,0.0,2.93,153.7,-9999.0,'1111122,1111122,1111122' 
DISL,ioos:station:DISL:PPTA:1,2013-07-03T00:00:00Z,30.2791,-87.5561,0.0,2.54,148.4,-9999.0,'1111122,1111122,1111122' 
DISL,ioos:station:DISL:PPTA:1,2013-07-03T00:30:00Z,30.2791,-87.5561,0.0,2.8,153.8,-9999.0,'1111122,1111122,1111122' 
DISL,ioos:station:DISL:PPTA:1,2013-07-03T01:00:00Z,30.2791,-87.5561,0.0,2.77,137.9,-9999.0,'1111122,1111122,1111122' 
DISL,ioos:station:DISL:PPTA:1,2013-07-03T01:30:00Z,30.2791,-87.5561,0.0,1.98,145.4,-9999.0,'1111122,1111122,1111122' 
DISL,ioos:station:DISL:PPTA:1,2013-07-03T02:00:00Z,30.2791,-87.5561,0.0,2.07,132.0,-9999.0,'1111122,1111122,1111122' 
DISL,ioos:station:DISL:PPTA:1,2013-07-03T02:30:00Z,30.2791,-87.5561,0.0,2.17,145.7,-9999.0,'1111122,1111122,1111122' 
DISL,ioos:station:DISL:PPTA:1,2013-07-03T03:00:00Z,30.2791,-87.5561,0.0,1.82,122.2,-9999.0,'1111122,1111122,1111122' 
DISL,ioos:station:DISL:PPTA:1,2013-07-03T03:30:00Z,30.2791,-87.5561,0.0,1.3,140.4,-9999.0,'1111122,1111122,1111122' 
DISL,ioos:station:DISL:PPTA:1,2013-07-03T04:00:00Z,30.2791,-87.5561,0.0,1.3,116.0,-9999.0,'1111122,1111122,1111122' 
DISL,ioos:station:DISL:PPTA:1,2013-07-03T04:30:00Z,30.2791,-87.5561,0.0,1.45,100.6,-9999.0,'1111122,1111122,1111122' 
DISL,ioos:station:DISL:PPTA:1,2013-07-03T05:00:00Z,30.2791,-87.5561,0.0,1.01,89.5,-9999.0,'1111122,1111122,1111122' 
DISL,ioos:station:DISL:PPTA:1,2013-07-03T05:30:00Z,30.2791,-87.5561,0.0,1.86,67.56,-9999.0,'1111122,1111122,1111122' 
DISL,ioos:station:DISL:PPTA:1,2013-07-03T06:00:00Z,30.2791,-87.5561,0.0,2.33,66.03,-9999.0,'1111122,1111122,1111122' 
DISL,ioos:station:DISL:PPTA:1,2013-07-03T06:30:00Z,30.2791,-87.5561,0.0,1.61,56.04,-9999.0,'1111122,1111122,1111122' 
DISL,ioos:station:DISL:PPTA:1,2013-07-03T07:00:00Z,30.2791,-87.5561,0.0,1.32,313.9,-9999.0,'1111122,1111122,1111122' 
DISL,ioos:station:DISL:PPTA:1,2013-07-03T07:30:00Z,30.2791,-87.5561,0.0,1.82,24.97,-9999.0,'1111122,1111122,1111122' 
DISL,ioos:station:DISL:PPTA:1,2013-07-03T08:00:00Z,30.2791,-87.5561,0.0,2.07,45.67,-9999.0,'1111122,1111122,1111122' 
DISL,ioos:station:DISL:PPTA:1,2013-07-03T08:30:00Z,30.2791,-87.5561,0.0,2.41,48.52,-9999.0,'1111122,1111122,1111122' 
DISL,ioos:station:DISL:PPTA:1,2013-07-03T09:00:00Z,30.2791,-87.5561,0.0,2.1,24.4,-9999.0,'1111122,1111122,1111122' 
DISL,ioos:station:DISL:PPTA:1,2013-07-03T09:30:00Z,30.2791,-87.5561,0.0,2.7,35.13,-9999.0,'1111122,1111122,1111122' 
DISL,ioos:station:DISL:PPTA:1,2013-07-03T10:00:00Z,30.2791,-87.5561,0.0,3.69,53.96,-9999.0,'1111122,1111122,1111122' 
DISL,ioos:station:DISL:PPTA:1,2013-07-03T10:30:00Z,30.2791,-87.5561,0.0,3.76,48.62,-9999.0,'1111122,1111122,1111122' 
DISL,ioos:station:DISL:PPTA:1,2013-07-03T11:00:00Z,30.2791,-87.5561,0.0,2.67,33.54,-9999.0,'1111122,1111122,1111122' 
DISL,ioos:station:DISL:PPTA:1,2013-07-03T11:30:00Z,30.2791,-87.5561,0.0,2.26,0.365,-9999.0,'1111122,1111122,1111122' 
DISL,ioos:station:DISL:PPTA:1,2013-07-03T12:00:00Z,30.2791,-87.5561,0.0,2.32,40.9,-9999.0,'1111122,1111122,1111122' 
DISL,ioos:station:DISL:PPTA:1,2013-07-03T12:30:00Z,30.2791,-87.5561,0.0,3.25,76.34,-9999.0,'1111122,1111122,1111122' 
DISL,ioos:station:DISL:PPTA:1,2013-07-03T13:00:00Z,30.2791,-87.5561,0.0,3.27,50.31,-9999.0,'1111122,1111122,1111122' 
DISL,ioos:station:DISL:PPTA:1,2013-07-03T13:30:00Z,30.2791,-87.5561,0.0,2.38,8.78,-9999.0,'1111122,1111122,1111122' 
DISL,ioos:station:DISL:PPTA:1,2013-07-03T14:00:00Z,30.2791,-87.5561,0.0,2.51,46.35,-9999.0,'1111122,1111122,1111122' 
DISL,ioos:station:DISL:PPTA:1,2013-07-03T14:30:00Z,30.2791,-87.5561,0.0,2.7,47.31,-9999.0,'1111122,1111122,1111122' 
DISL,ioos:station:DISL:PPTA:1,2013-07-03T15:00:00Z,30.2791,-87.5561,0.0,2.94,52.53,-9999.0,'1111122,1111122,1111122' 
DISL,ioos:station:DISL:PPTA:1,2013-07-03T15:30:00Z,30.2791,-87.5561,0.0,2.66,51.95,-9999.0,'1111122,1111122,1111122' 
DISL,ioos:station:DISL:PPTA:1,2013-07-03T16:00:00Z,30.2791,-87.5561,0.0,4.57,78.72,-9999.0,'1111122,1111122,1111122' 
DISL,ioos:station:DISL:PPTA:1,2013-07-03T16:30:00Z,30.2791,-87.5561,0.0,3.94,90.7,-9999.0,'1111122,1111122,1111122' 
DISL,ioos:station:DISL:PPTA:1,2013-07-03T17:00:00Z,30.2791,-87.5561,0.0,4.53,80.6,-9999.0,'1111122,1111122,1111122' 
DISL,ioos:station:DISL:PPTA:1,2013-07-03T17:30:00Z,30.2791,-87.5561,0.0,6.98,74.42,-9999.0,'1111122,1111122,1111122' 
DISL,ioos:station:DISL:PPTA:1,2013-07-03T18:00:00Z,30.2791,-87.5561,0.0,7.44,74.76,-9999.0,'1111122,1111122,1111122' 
DISL,ioos:station:DISL:PPTA:1,2013-07-03T18:30:00Z,30.2791,-87.5561,0.0,6.47,89.7,-9999.0,'1111122,1111122,1111122' 
DISL,ioos:station:DISL:PPTA:1,2013-07-03T19:00:00Z,30.2791,-87.5561,0.0,7.21,106.2,-9999.0,'1111122,1111122,1111122' 
DISL,ioos:station:DISL:PPTA:1,2013-07-03T19:30:00Z,30.2791,-87.5561,0.0,6.03,103.3,-9999.0,'1111122,1111122,1111122' 
DISL,ioos:station:DISL:PPTA:1,2013-07-03T20:00:00Z,30.2791,-87.5561,0.0,5.81,100.6,-9999.0,'1111122,1111122,1111122' 
DISL,ioos:station:DISL:PPTA:1,2013-07-03T20:30:00Z,30.2791,-87.5561,0.0,6.24,111.0,-9999.0,'1111122,1111122,1111122' 
DISL,ioos:station:DISL:PPTA:1,2013-07-03T21:00:00Z,30.2791,-87.5561,0.0,6.26,107.8,-9999.0,'1111122,1111122,1111122' 
DISL,ioos:station:DISL:PPTA:1,2013-07-03T21:30:00Z,30.2791,-87.5561,0.0,6.26,104.9,-9999.0,'1111122,1111122,1111122' 
DISL,ioos:station:DISL:PPTA:1,2013-07-03T22:00:00Z,30.2791,-87.5561,0.0,5.82,106.9,-9999.0,'1111122,1111122,1111122' 
DISL,ioos:station:DISL:PPTA:1,2013-07-03T22:30:00Z,30.2791,-87.5561,0.0,4.53,84.7,-9999.0,'1111122,1111122,1111122' 
DISL,ioos:station:DISL:PPTA:1,2013-07-03T23:00:00Z,30.2791,-87.5561,0.0,4.37,83.3,-9999.0,'1111122,1111122,1111122' 
DISL,ioos:station:DISL:PPTA:1,2013-07-03T23:30:00Z,30.2791,-87.5561,0.0,4.19,100.1,-9999.0,'1111122,1111122,1111122' 
DISL,ioos:station:DISL:PPTA:1,2013-07-04T00:00:00Z,30.2791,-87.5561,0.0,4.59,70.63,-9999.0,'1111122,1111122,1111122' 
DISL,ioos:station:DISL:PPTA:1,2013-07-04T00:30:00Z,30.2791,-87.5561,0.0,3.79,86.1,-9999.0,'1111122,1111122,1111122' 
DISL,ioos:station:DISL:PPTA:1,2013-07-04T01:00:00Z,30.2791,-87.5561,0.0,5.14,112.6,-9999.0,'1111122,1111122,1111122' 
DISL,ioos:station:DISL:PPTA:1,2013-07-04T01:30:00Z,30.2791,-87.5561,0.0,5.12,106.2,-9999.0,'1111122,1111122,1111122' 
DISL,ioos:station:DISL:PPTA:1,2013-07-04T02:00:00Z,30.2791,-87.5561,0.0,4.22,95.9,-9999.0,'1111122,1111122,1111122' 
DISL,ioos:station:DISL:PPTA:1,2013-07-04T02:30:00Z,30.2791,-87.5561,0.0,5.04,83.9,-9999.0,'1111122,1111122,1111122' 
DISL,ioos:station:DISL:PPTA:1,2013-07-04T03:00:00Z,30.2791,-87.5561,0.0,1.81,82.6,-9999.0,'1111122,1111122,1111122' 
DISL,ioos:station:DISL:PPTA:1,2013-07-04T03:30:00Z,30.2791,-87.5561,0.0,4.85,67.7,-9999.0,'1111122,1111122,1111122' 
DISL,ioos:station:DISL:PPTA:1,2013-07-04T04:00:00Z,30.2791,-87.5561,0.0,6.47,100.7,-9999.0,'1111122,1111122,1111122' 
DISL,ioos:station:DISL:PPTA:1,2013-07-04T04:30:00Z,30.2791,-87.5561,0.0,5.82,111.2,-9999.0,'1111122,1111122,1111122' 
DISL,ioos:station:DISL:PPTA:1,2013-07-04T05:00:00Z,30.2791,-87.5561,0.0,4.04,10.64,-9999.0,'1111122,1111122,1111122' 
DISL,ioos:station:DISL:PPTA:1,2013-07-04T05:30:00Z,30.2791,-87.5561,0.0,2.52,17.45,-9999.0,'1111122,1111122,1111122' 
DISL,ioos:station:DISL:PPTA:1,2013-07-04T06:00:00Z,30.2791,-87.5561,0.0,2.6,285.2,-9999.0,'1111122,1111122,1111122' 
DISL,ioos:station:DISL:PPTA:1,2013-07-04T06:30:00Z,30.2791,-87.5561,0.0,3.62,351.3,-9999.0,'1111122,1111122,1111122' 
DISL,ioos:station:DISL:PPTA:1,2013-07-04T07:00:00Z,30.2791,-87.5561,0.0,3.35,351.3,-9999.0,'1111122,1111122,1111122' 
DISL,ioos:station:DISL:PPTA:1,2013-07-04T07:30:00Z,30.2791,-87.5561,0.0,3.3,346.8,-9999.0,'1111122,1111122,1111122' 
DISL,ioos:station:DISL:PPTA:1,2013-07-04T08:00:00Z,30.2791,-87.5561,0.0,3.68,335.3,-9999.0,'1111122,1111122,1111122' 
DISL,ioos:station:DISL:PPTA:1,2013-07-04T08:30:00Z,30.2791,-87.5561,0.0,3.55,341.2,-9999.0,'1111122,1111122,1111122' 
DISL,ioos:station:DISL:PPTA:1,2013-07-04T09:00:00Z,30.2791,-87.5561,0.0,3.76,8.79,-9999.0,'1111122,1111122,1111122' 
DISL,ioos:station:DISL:PPTA:1,2013-07-04T09:30:00Z,30.2791,-87.5561,0.0,1.47,320.2,-9999.0,'1111122,1111122,1111122' 
DISL,ioos:station:DISL:PPTA:1,2013-07-04T10:00:00Z,30.2791,-87.5561,0.0,1.85,344.6,-9999.0,'1111122,1111122,1111122' 
DISL,ioos:station:DISL:PPTA:1,2013-07-04T10:30:00Z,30.2791,-87.5561,0.0,0.75,54.34,-9999.0,'1111122,1111122,1111122' 
DISL,ioos:station:DISL:PPTA:1,2013-07-04T11:00:00Z,30.2791,-87.5561,0.0,1.12,317.9,-9999.0,'1111122,1111122,1111122' 
DISL,ioos:station:DISL:PPTA:1,2013-07-04T11:30:00Z,30.2791,-87.5561,0.0,0.74,78.27,-9999.0,'1111122,1111122,1111122' 
DISL,ioos:station:DISL:PPTA:1,2013-07-04T12:00:00Z,30.2791,-87.5561,0.0,2.68,28.08,-9999.0,'1111122,1111122,1111122' 
DISL,ioos:station:DISL:PPTA:1,2013-07-04T12:30:00Z,30.2791,-87.5561,0.0,3.86,12.62,-9999.0,'1111122,1111122,1111122' 
DISL,ioos:station:DISL:PPTA:1,2013-07-04T13:00:00Z,30.2791,-87.5561,0.0,3.41,38.6,-9999.0,'1111122,1111122,1111122' 
DISL,ioos:station:DISL:PPTA:1,2013-07-04T13:30:00Z,30.2791,-87.5561,0.0,3.73,41.73,-9999.0,'1111122,1111122,1111122' 
DISL,ioos:station:DISL:PPTA:1,2013-07-04T14:00:00Z,30.2791,-87.5561,0.0,4.05,60.79,-9999.0,'1111122,1111122,1111122' 
DISL,ioos:station:DISL:PPTA:1,2013-07-04T14:30:00Z,30.2791,-87.5561,0.0,3.21,63.86,-9999.0,'1111122,1111122,1111122' 
DISL,ioos:station:DISL:PPTA:1,2013-07-04T15:00:00Z,30.2791,-87.5561,0.0,3.68,79.3,-9999.0,'1111122,1111122,1111122' 
DISL,ioos:station:DISL:PPTA:1,2013-07-04T15:30:00Z,30.2791,-87.5561,0.0,4.86,101.8,-9999.0,'1111122,1111122,1111122' 
DISL,ioos:station:DISL:PPTA:1,2013-07-04T16:00:00Z,30.2791,-87.5561,0.0,3.36,115.5,-9999.0,'1111122,1111122,1111122' 
DISL,ioos:station:DISL:PPTA:1,2013-07-04T16:30:00Z,30.2791,-87.5561,0.0,4.46,126.0,-9999.0,'1111122,1111122,1111122' 
DISL,ioos:station:DISL:PPTA:1,2013-07-04T17:00:00Z,30.2791,-87.5561,0.0,4.06,134.7,-9999.0,'1111122,1111122,1111122' 
DISL,ioos:station:DISL:PPTA:1,2013-07-04T17:30:00Z,30.2791,-87.5561,0.0,4.83,129.4,-9999.0,'1111122,1111122,1111122' 
DISL,ioos:station:DISL:PPTA:1,2013-07-04T18:00:00Z,30.2791,-87.5561,0.0,5.15,126.5,-9999.0,'1111122,1111122,1111122' 
DISL,ioos:station:DISL:PPTA:1,2013-07-04T18:30:00Z,30.2791,-87.5561,0.0,4.88,120.0,-9999.0,'1111122,1111122,1111122' 
DISL,ioos:station:DISL:PPTA:1,2013-07-04T19:00:00Z,30.2791,-87.5561,0.0,6.19,127.0,-9999.0,'1111122,1111122,1111122' 
DISL,ioos:station:DISL:PPTA:1,2013-07-04T19:30:00Z,30.2791,-87.5561,0.0,5.58,123.0,-9999.0,'1111122,1111122,1111122' 
DISL,ioos:station:DISL:PPTA:1,2013-07-04T20:00:00Z,30.2791,-87.5561,0.0,6.47,127.9,-9999.0,'1111122,1111122,1111122' 
DISL,ioos:station:DISL:PPTA:1,2013-07-04T20:30:00Z,30.2791,-87.5561,0.0,6.86,127.0,-9999.0,'1111122,1111122,1111122' 
DISL,ioos:station:DISL:PPTA:1,2013-07-04T21:00:00Z,30.2791,-87.5561,0.0,7.28,123.6,-9999.0,'1111122,1111122,1111122' 
DISL,ioos:station:DISL:PPTA:1,2013-07-04T21:30:00Z,30.2791,-87.5561,0.0,7.74,121.9,-9999.0,'1111122,1111122,1111122' 
DISL,ioos:station:DISL:PPTA:1,2013-07-04T22:00:00Z,30.2791,-87.5561,0.0,7.1,120.2,-9999.0,'1111122,1111122,1111122' 
DISL,ioos:station:DISL:PPTA:1,2013-07-04T22:30:00Z,30.2791,-87.5561,0.0,8.12,125.8,-9999.0,'1111122,1111122,1111122' 
DISL,ioos:station:DISL:PPTA:1,2013-07-04T23:00:00Z,30.2791,-87.5561,0.0,7.91,128.6,-9999.0,'1111122,1111122,1111122' 
DISL,ioos:station:DISL:PPTA:1,2013-07-04T23:30:00Z,30.2791,-87.5561,0.0,7.47,125.6,-9999.0,'1111122,1111122,1111122' 
DISL,ioos:station:DISL:PPTA:1,2013-07-05T00:00:00Z,30.2791,-87.5561,0.0,7.84,129.3,-9999.0,'1111122,1111122,1111122' 
DISL,ioos:station:DISL:PPTA:1,2013-07-05T00:30:00Z,30.2791,-87.5561,0.0,7.75,130.9,-9999.0,'1111122,1111122,1111122' 
DISL,ioos:station:DISL:PPTA:1,2013-07-05T01:00:00Z,30.2791,-87.5561,0.0,7.76,143.4,-9999.0,'1111122,1111122,1111122' 
DISL,ioos:station:DISL:PPTA:1,2013-07-05T01:30:00Z,30.2791,-87.5561,0.0,7.62,150.7,-9999.0,'1111122,1111122,1111122' 
DISL,ioos:station:DISL:PPTA:1,2013-07-05T02:00:00Z,30.2791,-87.5561,0.0,8.97,152.4,-9999.0,'1111122,1111122,1111122' 
DISL,ioos:station:DISL:PPTA:1,2013-07-05T02:30:00Z,30.2791,-87.5561,0.0,6.59,159.4,-9999.0,'1111122,1111122,1111122' 
DISL,ioos:station:DISL:PPTA:1,2013-07-05T03:00:00Z,30.2791,-87.5561,0.0,7.09,154.0,-9999.0,'1111122,1111122,1111122' 
DISL,ioos:station:DISL:PPTA:1,2013-07-05T03:30:00Z,30.2791,-87.5561,0.0,6.52,166.8,-9999.0,'1111122,1111122,1111122' 
DISL,ioos:station:DISL:PPTA:1,2013-07-05T04:00:00Z,30.2791,-87.5561,0.0,7.62,164.8,-9999.0,'1111122,1111122,1111122' 
DISL,ioos:station:DISL:PPTA:1,2013-07-05T04:30:00Z,30.2791,-87.5561,0.0,7.72,162.5,-9999.0,'1111122,1111122,1111122' 